Weather Roundup
Issued by NWS Chicago, IL

Home | Current Version | Previous Version | Text Only | Print | Product List | Glossary On
Versions: 1 2 3 4 5 6 7 8 9 10 11 12 13 14 15 16 17 18 19 20 21 22 23 24 25 26 27 28 29 30 31 32 33 34 35 36 37 38 39 40 41 42 43 44 45 46 47 48 49 50
000
NZUS59 KLOT 271604
HRRLOT

CHICAGO AREA WEATHER ROUNDUP
NATIONAL WEATHER SERVICE CHICAGO/ROMEOVILLE IL
1100 AM CDT TUE SEP 27 2016

NOTE: "FAIR" INDICATES FEW OR NO CLOUDS BELOW 12,000 FEET WITH NO
SIGNIFICANT WEATHER AND/OR OBSTRUCTIONS TO VISIBILITY.

* THESE STATIONS ARE NOT UNDER NWS QUALITY CONTROL. THEY ALSO MAY NOT
  REPORT WEATHER SUCH AS PRECIPITATION OR FOG.

ILZ005-006-012>014-019>023-271700-
NORTHEAST ILLINOIS

CITY           SKY/WX    TMP DP  RH WIND       PRES   REMARKS
OHARE          MOSUNNY   65  30  27 W21G36    29.80F
MIDWAY         MOSUNNY   66  32  28 W24G31    29.82F
AURORA         SUNNY     66  34  30 W28       29.84F
LANSING*       SUNNY     65  40  39 W21G30    29.84F
WAUKEGAN       SUNNY     62  38  40 W10G28    29.75F
DUPAGE AIRPORT SUNNY     65  34  31 W20G26    29.82F
WHEELING       SUNNY     64  34  32 W14G26    29.80F
KANKAKEE*      SUNNY     69  36  29 W17       29.87F
NORTHERLY ISL    N/A     64  31  29 W12         N/A
$$

WIZ051-052-058>065-066-070>072-271700-
SOUTHEAST WISCONSIN

CITY           SKY/WX    TMP DP  RH WIND       PRES   REMARKS
MILWAUKEE      MOSUNNY   60  40  47 W21G26    29.75F
KENOSHA*       SUNNY     61  40  45 W18G31    29.75F
RACINE*        SUNNY     60  39  45 W18G26    29.75F
WAUKESHA       PTSUNNY   55  39  54 W12G25    29.75F
WEST BEND      CLOUDY    54  41  62 W15G23    29.72S
$$

INZ001>003-010>013-019-020-271700-
NORTHWEST INDIANA

CITY           SKY/WX    TMP DP  RH WIND       PRES   REMARKS
GARY*          MOSUNNY   66  36  32 W17G31    29.85S
MICHIGAN CITY* NOT AVBL
RENSSELAER*    NOT AVBL
VALPARAISO     SUNNY     65  38  36 W18G28    29.85F
$$

LMZ740>746-271700-
SOUTHERN LAKE MICHIGAN

STATION/POSITION TIME  SKY/WX   TEMP WIND        PRES    VSBY
                                AIR  DIR/SP/G
                 (UTC)          (F)  (DEG/KT/KT) (MB)    (MI)
HARRISON CRIB    1540            63  260/ 27/ 33   N/A
BURNHAM HARBOR   1600            64  260/ 13/ 19   N/A
CALUMET HARBOR   1530            64  230/ 11/ 21 1009.8F
BURNS HARBOR     1540            63  250/ 19/ 25 1010.5F
MICHIGAN CITY    1540            61  220/ 27/ 31   N/A
$$

ABBREVIATIONS USED IN REMARKS
   TC - TEMPERATURE IN CELSIUS
  WCI - WIND CHILL INDEX
   HX - HEAT INDEX
  VSB - VISIBILITY
$$




USA.gov is the U.S. government's official web portal to all federal, state and local government web resources and services.